Wetterdaten: Dienstag, 24.01.2017
Datum Zeit Temp. A. Feuchte A. Luftdruck Regen Wind Richtung Richtung Sonnenschein Solar
24.01.2017 00:01 -0,8 C 87 % 1026,0 hPa 0,0 l/m 10,2 km/h (2 Bft) S22.5 170 0 min 0 W/m
24.01.2017 00:05 -0,8 C 87 % 1026,0 hPa 0,0 l/m 8,5 km/h (2 Bft) S-SO45 160 0 min 0 W/m
24.01.2017 00:11 -0,9 C 87 % 1026,0 hPa 0,0 l/m 11,5 km/h (2 Bft) S-SO22.5 160 0 min 0 W/m
24.01.2017 00:16 -0,8 C 87 % 1026,0 hPa 0,0 l/m 12,1 km/h (2 Bft) S-SO22.5 165 0 min 0 W/m
24.01.2017 00:21 -0,8 C 87 % 1026,0 hPa 0,0 l/m 10,1 km/h (2 Bft) S-SO22.5 160 0 min 0 W/m
24.01.2017 00:25 -0,9 C 87 % 1025,0 hPa 0,0 l/m 10,0 km/h (2 Bft) S-SO22.5 165 0 min 0 W/m
24.01.2017 00:30 -1,0 C 87 % 1025,0 hPa 0,0 l/m 13,2 km/h (3 Bft) S22.5 170 0 min 0 W/m
24.01.2017 00:35 -1,0 C 87 % 1025,0 hPa 0,0 l/m 11,6 km/h (2 Bft) S-SO22.5 160 0 min 0 W/m
24.01.2017 00:41 -1,0 C 87 % 1025,0 hPa 0,0 l/m 9,2 km/h (2 Bft) S22.5 175 0 min 0 W/m
24.01.2017 00:46 -1,0 C 88 % 1025,0 hPa 0,0 l/m 10,9 km/h (2 Bft) S-SO22.5 160 0 min 0 W/m
24.01.2017 00:50 -1,0 C 88 % 1026,0 hPa 0,0 l/m 10,4 km/h (2 Bft) S-SO22.5 165 0 min 0 W/m
24.01.2017 00:55 -1,0 C 88 % 1026,0 hPa 0,0 l/m 8,0 km/h (2 Bft) S-SO22.5 155 0 min 0 W/m
24.01.2017 01:00 -1,0 C 88 % 1026,0 hPa 0,0 l/m 8,6 km/h (2 Bft) S-SO22.5 155 0 min 0 W/m
24.01.2017 01:06 -1,0 C 88 % 1026,0 hPa 0,0 l/m 8,5 km/h (2 Bft) S-SO22.5 150 0 min 0 W/m
24.01.2017 01:10 -1,1 C 88 % 1026,0 hPa 0,0 l/m 11,6 km/h (2 Bft) S-SO22.5 160 0 min 0 W/m
24.01.2017 01:15 -1,1 C 88 % 1026,0 hPa 0,0 l/m 10,6 km/h (2 Bft) S-SO22.5 160 0 min 0 W/m
24.01.2017 01:20 -1,1 C 88 % 1026,0 hPa 0,0 l/m 10,6 km/h (2 Bft) S-SO22.5 165 0 min 0 W/m
24.01.2017 01:26 -1,1 C 88 % 1026,0 hPa 0,0 l/m 11,2 km/h (2 Bft) S-SO22.5 150 0 min 0 W/m
24.01.2017 01:31 -1,1 C 88 % 1025,0 hPa 0,0 l/m 11,1 km/h (2 Bft) S-SO22.5 165 0 min 0 W/m
24.01.2017 01:35 -1,1 C 88 % 1025,0 hPa 0,0 l/m 11,8 km/h (2 Bft) S-SO22.5 165 0 min 0 W/m
24.01.2017 01:40 -1,1 C 88 % 1025,0 hPa 0,0 l/m 10,2 km/h (2 Bft) S-SO22.5 165 0 min 0 W/m
24.01.2017 01:45 -1,1 C 88 % 1025,0 hPa 0,0 l/m 11,9 km/h (2 Bft) S-SO22.5 165 0 min 0 W/m
24.01.2017 01:51 -1,1 C 88 % 1025,0 hPa 0,0 l/m 10,3 km/h (2 Bft) S-SO22.5 160 0 min 0 W/m
24.01.2017 01:56 -1,2 C 89 % 1025,0 hPa 0,0 l/m 14,2 km/h (3 Bft) S22.5 170 0 min 0 W/m
24.01.2017 02:01 -1,2 C 89 % 1025,0 hPa 0,0 l/m 10,5 km/h (2 Bft) S22.5 175 0 min 0 W/m
24.01.2017 02:05 -1,2 C 89 % 1025,0 hPa 0,0 l/m 11,1 km/h (2 Bft) S22.5 170 0 min 0 W/m
24.01.2017 02:11 -1,2 C 89 % 1025,0 hPa 0,0 l/m 13,6 km/h (3 Bft) S-SO22.5 160 0 min 0 W/m
24.01.2017 02:16 -1,2 C 89 % 1025,0 hPa 0,0 l/m 13,6 km/h (3 Bft) S-SO22.5 160 0 min 0 W/m
24.01.2017 02:20 -1,2 C 89 % 1025,0 hPa 0,0 l/m 13,0 km/h (3 Bft) S45 170 0 min 0 W/m
24.01.2017 02:25 -1,2 C 89 % 1025,0 hPa 0,0 l/m 11,3 km/h (2 Bft) S-SO22.5 160 0 min 0 W/m
24.01.2017 02:30 -1,2 C 89 % 1025,0 hPa 0,0 l/m 8,8 km/h (2 Bft) S22.5 170 0 min 0 W/m
24.01.2017 02:36 -1,2 C 89 % 1025,0 hPa 0,0 l/m 9,9 km/h (2 Bft) S22.5 170 0 min 0 W/m
24.01.2017 02:41 -1,2 C 89 % 1025,0 hPa 0,0 l/m 10,0 km/h (2 Bft) S-SO22.5 160 0 min 0 W/m
24.01.2017 02:46 -1,2 C 89 % 1025,0 hPa 0,0 l/m 9,0 km/h (2 Bft) S-SO22.5 160 0 min 0 W/m
24.01.2017 02:50 -1,3 C 89 % 1025,0 hPa 0,0 l/m 9,2 km/h (2 Bft) S-SO22.5 165 0 min 0 W/m
24.01.2017 02:55 -1,3 C 89 % 1025,0 hPa 0,0 l/m 11,1 km/h (2 Bft) S-SO22.5 160 0 min 0 W/m
24.01.2017 03:01 -1,3 C 89 % 1025,0 hPa 0,0 l/m 9,1 km/h (2 Bft) S-SO22.5 160 0 min 0 W/m
24.01.2017 03:05 -1,3 C 89 % 1025,0 hPa 0,0 l/m 11,5 km/h (2 Bft) S-SO22.5 165 0 min 0 W/m
24.01.2017 03:10 -1,3 C 89 % 1025,0 hPa 0,0 l/m 9,4 km/h (2 Bft) S22.5 170 0 min 0 W/m
24.01.2017 03:15 -1,3 C 89 % 1025,0 hPa 0,0 l/m 9,8 km/h (2 Bft) S-SO22.5 165 0 min 0 W/m
24.01.2017 03:21 -1,3 C 89 % 1025,0 hPa 0,0 l/m 12,2 km/h (2 Bft) S-SO22.5 165 0 min 0 W/m
24.01.2017 03:26 -1,3 C 89 % 1025,0 hPa 0,0 l/m 12,8 km/h (3 Bft) S-SO22.5 165 0 min 0 W/m
24.01.2017 03:31 -1,3 C 89 % 1025,0 hPa 0,0 l/m 11,4 km/h (2 Bft) S-SO22.5 165 0 min 0 W/m
24.01.2017 03:35 -1,3 C 89 % 1025,0 hPa 0,0 l/m 11,5 km/h (2 Bft) S22.5 170 0 min 0 W/m
24.01.2017 03:40 -1,3 C 89 % 1025,0 hPa 0,0 l/m 12,2 km/h (2 Bft) S-SO22.5 165 0 min 0 W/m
24.01.2017 03:46 -1,3 C 89 % 1025,0 hPa 0,0 l/m 11,5 km/h (2 Bft) S-SO22.5 165 0 min 0 W/m
24.01.2017 03:45 -1,3 C 89 % 1025,0 hPa 0,0 l/m 11,5 km/h (2 Bft) S-SO22.5 165 0 min 0 W/m
24.01.2017 03:50 -1,3 C 89 % 1025,0 hPa 0,0 l/m 9,8 km/h (2 Bft) S-SO22.5 165 0 min 0 W/m
24.01.2017 03:55 -1,3 C 89 % 1025,0 hPa 0,0 l/m 9,4 km/h (2 Bft) S-SO 150 0 min 0 W/m
24.01.2017 04:01 -1,3 C 89 % 1025,0 hPa 0,0 l/m 9,4 km/h (2 Bft) S-SO 150 0 min 0 W/m
24.01.2017 04:05 -1,2 C 89 % 1025,0 hPa 0,0 l/m 9,0 km/h (2 Bft) S-SO22.5 160 0 min 0 W/m
24.01.2017 04:10 -1,2 C 89 % 1025,0 hPa 0,0 l/m 9,5 km/h (2 Bft) S-SO22.5 165 0 min 0 W/m
24.01.2017 04:15 -1,3 C 89 % 1025,0 hPa 0,0 l/m 8,5 km/h (2 Bft) S-SO22.5 150 0 min 0 W/m
24.01.2017 04:20 -1,2 C 89 % 1025,0 hPa 0,0 l/m 8,3 km/h (2 Bft) S-SO22.5 150 0 min 0 W/m
24.01.2017 04:25 -1,3 C 89 % 1025,0 hPa 0,0 l/m 10,3 km/h (2 Bft) S-SO22.5 160 0 min 0 W/m
24.01.2017 04:30 -1,2 C 89 % 1025,0 hPa 0,0 l/m 10,2 km/h (2 Bft) S-SO22.5 165 0 min 0 W/m
24.01.2017 04:36 -1,2 C 89 % 1025,0 hPa 0,0 l/m 8,9 km/h (2 Bft) S-SO22.5 160 0 min 0 W/m
24.01.2017 04:41 -1,3 C 89 % 1025,0 hPa 0,0 l/m 8,4 km/h (2 Bft) S-SO22.5 160 0 min 0 W/m
24.01.2017 04:46 -1,2 C 89 % 1025,0 hPa 0,0 l/m 9,6 km/h (2 Bft) S45 175 0 min 0 W/m
24.01.2017 04:51 -1,2 C 89 % 1025,0 hPa 0,0 l/m 10,1 km/h (2 Bft) S22.5 170 0 min 0 W/m
24.01.2017 04:56 -1,2 C 89 % 1025,0 hPa 0,0 l/m 8,9 km/h (2 Bft) S22.5 170 0 min 0 W/m
24.01.2017 05:00 -1,2 C 89 % 1025,0 hPa 0,0 l/m 9,5 km/h (2 Bft) S22.5 175 0 min 0 W/m
24.01.2017 05:05 -1,2 C 89 % 1025,0 hPa 0,0 l/m 8,0 km/h (2 Bft) SO22.5 140 0 min 0 W/m
24.01.2017 05:11 -1,2 C 89 % 1025,0 hPa 0,0 l/m 9,0 km/h (2 Bft) SO22.5 140 0 min 0 W/m
24.01.2017 05:16 -1,2 C 89 % 1025,0 hPa 0,0 l/m 8,6 km/h (2 Bft) S-SO22.5 150 0 min 0 W/m
24.01.2017 05:21 -1,2 C 89 % 1025,0 hPa 0,0 l/m 8,1 km/h (2 Bft) S-SO22.5 155 0 min 0 W/m
24.01.2017 05:26 -1,2 C 89 % 1025,0 hPa 0,0 l/m 11,3 km/h (2 Bft) S 180 0 min 0 W/m
24.01.2017 05:31 -1,2 C 89 % 1025,0 hPa 0,0 l/m 8,9 km/h (2 Bft) S-SO22.5 155 0 min 0 W/m
24.01.2017 05:35 -1,2 C 89 % 1025,0 hPa 0,0 l/m 9,8 km/h (2 Bft) S-SO22.5 160 0 min 0 W/m
24.01.2017 05:40 -1,2 C 89 % 1025,0 hPa 0,0 l/m 9,4 km/h (2 Bft) S-SO22.5 155 0 min 0 W/m
24.01.2017 05:45 -1,2 C 89 % 1025,0 hPa 0,0 l/m 9,2 km/h (2 Bft) S-SO22.5 155 0 min 0 W/m
24.01.2017 05:50 -1,2 C 89 % 1025,0 hPa 0,0 l/m 10,0 km/h (2 Bft) S-SO45 160 0 min 0 W/m
24.01.2017 05:55 -1,2 C 89 % 1025,0 hPa 0,0 l/m 10,5 km/h (2 Bft) S-SO22.5 165 0 min 0 W/m
24.01.2017 06:00 -1,2 C 89 % 1025,0 hPa 0,0 l/m 7,9 km/h (2 Bft) S-SO22.5 160 0 min 0 W/m
24.01.2017 06:06 -1,2 C 89 % 1025,0 hPa 0,0 l/m 9,8 km/h (2 Bft) S-SO22.5 155 0 min 0 W/m
24.01.2017 06:11 -1,2 C 89 % 1025,0 hPa 0,0 l/m 10,1 km/h (2 Bft) S-SO22.5 160 0 min 0 W/m
24.01.2017 06:15 -1,2 C 89 % 1025,0 hPa 0,0 l/m 12,1 km/h (2 Bft) S-SO22.5 160 0 min 0 W/m
24.01.2017 06:20 -1,2 C 89 % 1025,0 hPa 0,0 l/m 10,0 km/h (2 Bft) S22.5 170 0 min 0 W/m
24.01.2017 06:25 -1,2 C 89 % 1025,0 hPa 0,0 l/m 7,6 km/h (2 Bft) S-SO22.5 160 0 min 0 W/m
24.01.2017 06:30 -1,2 C 89 % 1025,0 hPa 0,0 l/m 10,5 km/h (2 Bft) S-SO22.5 165 0 min 0 W/m
24.01.2017 06:35 -1,2 C 89 % 1025,0 hPa 0,0 l/m 12,3 km/h (2 Bft) S-SO22.5 160 0 min 0 W/m
24.01.2017 06:41 -1,2 C 89 % 1025,0 hPa 0,0 l/m 8,0 km/h (2 Bft) S-SO22.5 160 0 min 0 W/m
24.01.2017 06:46 -1,2 C 89 % 1026,0 hPa 0,0 l/m 11,1 km/h (2 Bft) S-SO22.5 165 0 min 0 W/m
24.01.2017 06:51 -1,2 C 89 % 1026,0 hPa 0,0 l/m 12,6 km/h (3 Bft) S-SO45 160 0 min 0 W/m
24.01.2017 06:56 -1,2 C 89 % 1026,0 hPa 0,0 l/m 9,9 km/h (2 Bft) S22.5 170 0 min 0 W/m
24.01.2017 07:01 -1,2 C 90 % 1026,0 hPa 0,0 l/m 7,6 km/h (2 Bft) S-SO22.5 150 0 min 0 W/m
24.01.2017 07:05 -1,2 C 90 % 1026,0 hPa 0,0 l/m 9,2 km/h (2 Bft) S-SO22.5 155 0 min 0 W/m
24.01.2017 07:10 -1,2 C 90 % 1026,0 hPa 0,0 l/m 9,2 km/h (2 Bft) S-SO22.5 155 0 min 0 W/m
24.01.2017 07:16 -1,2 C 90 % 1026,0 hPa 0,0 l/m 10,7 km/h (2 Bft) S-SO22.5 160 0 min 0 W/m
24.01.2017 07:21 -1,2 C 90 % 1026,0 hPa 0,0 l/m 10,3 km/h (2 Bft) S-SO22.5 150 0 min 0 W/m
24.01.2017 07:26 -1,2 C 90 % 1026,0 hPa 0,0 l/m 11,5 km/h (2 Bft) S-SO22.5 150 0 min 0 W/m
24.01.2017 07:31 -1,2 C 90 % 1026,0 hPa 0,0 l/m 12,8 km/h (3 Bft) S-SO22.5 165 0 min 0 W/m
24.01.2017 07:36 -1,2 C 90 % 1026,0 hPa 0,0 l/m 10,5 km/h (2 Bft) S-SO 155 0 min 0 W/m
24.01.2017 07:40 -1,3 C 90 % 1026,0 hPa 0,0 l/m 8,8 km/h (2 Bft) S-SO22.5 165 0 min 0 W/m
24.01.2017 07:45 -1,3 C 90 % 1026,0 hPa 0,0 l/m 8,3 km/h (2 Bft) S22.5 170 0 min 0 W/m
24.01.2017 07:50 -1,2 C 90 % 1026,0 hPa 0,0 l/m 6,8 km/h (2 Bft) SO22.5 145 0 min 0 W/m
24.01.2017 07:55 -1,2 C 90 % 1026,0 hPa 0,0 l/m 11,7 km/h (2 Bft) S-SO22.5 155 0 min 0 W/m
24.01.2017 08:00 -1,2 C 90 % 1026,0 hPa 0,0 l/m 11,6 km/h (2 Bft) S-SO22.5 155 0 min 0 W/m
24.01.2017 08:06 -1,2 C 90 % 1026,0 hPa 0,0 l/m 11,6 km/h (2 Bft) S-SO22.5 165 0 min 0 W/m
24.01.2017 08:10 -1,2 C 90 % 1026,0 hPa 0,0 l/m 13,3 km/h (3 Bft) S-SO22.5 160 0 min 0 W/m
24.01.2017 08:15 -1,2 C 90 % 1026,0 hPa 0,0 l/m 10,1 km/h (2 Bft) S-SO22.5 160 0 min 0 W/m
24.01.2017 08:20 -1,2 C 90 % 1026,0 hPa 0,0 l/m 13,1 km/h (3 Bft) S-SO22.5 160 0 min 0 W/m
24.01.2017 08:25 -1,2 C 90 % 1026,0 hPa 0,0 l/m 12,7 km/h (3 Bft) S22.5 170 0 min 0 W/m
24.01.2017 08:30 -1,2 C 90 % 1026,0 hPa 0,0 l/m 12,1 km/h (2 Bft) S-SO22.5 165 0 min 0 W/m
24.01.2017 08:36 -1,2 C 90 % 1026,0 hPa 0,0 l/m 9,7 km/h (2 Bft) S-SO22.5 160 0 min 0 W/m
24.01.2017 08:41 -1,2 C 90 % 1026,0 hPa 0,0 l/m 9,8 km/h (2 Bft) S-SO45 155 0 min 0 W/m
24.01.2017 08:46 -1,2 C 90 % 1027,0 hPa 0,0 l/m 12,8 km/h (3 Bft) S22.5 170 0 min 0 W/m
24.01.2017 08:51 -1,2 C 90 % 1027,0 hPa 0,0 l/m 11,6 km/h (2 Bft) S-SO22.5 155 0 min 0 W/m
24.01.2017 08:56 -1,2 C 90 % 1027,0 hPa 0,0 l/m 8,5 km/h (2 Bft) S-SO45 155 0 min 0 W/m
24.01.2017 09:00 -1,1 C 90 % 1027,0 hPa 0,0 l/m 12,5 km/h (2 Bft) S-SO22.5 160 0 min 0 W/m
24.01.2017 09:05 -1,2 C 90 % 1027,0 hPa 0,0 l/m 12,1 km/h (2 Bft) S22.5 170 0 min 0 W/m
24.01.2017 09:11 -1,2 C 90 % 1027,0 hPa 0,0 l/m 15,1 km/h (3 Bft) S-SO22.5 150 0 min 0 W/m
24.01.2017 09:16 -1,1 C 90 % 1027,0 hPa 0,0 l/m 9,8 km/h (2 Bft) S-SO22.5 160 0 min 0 W/m
24.01.2017 09:21 -1,1 C 90 % 1027,0 hPa 0,0 l/m 6,7 km/h (2 Bft) S-SO22.5 155 0 min 0 W/m
24.01.2017 09:26 -1,1 C 90 % 1027,0 hPa 0,0 l/m 10,8 km/h (2 Bft) S-SO22.5 150 0 min 0 W/m
24.01.2017 09:30 -1,1 C 90 % 1027,0 hPa 0,0 l/m 9,6 km/h (2 Bft) S-SO22.5 165 0 min 0 W/m
24.01.2017 09:35 -1,1 C 90 % 1027,0 hPa 0,0 l/m 10,8 km/h (2 Bft) S-SO22.5 155 0 min 0 W/m
24.01.2017 09:40 -1,0 C 90 % 1027,0 hPa 0,0 l/m 10,0 km/h (2 Bft) S-SO22.5 155 0 min 0 W/m
24.01.2017 09:45 -1,0 C 90 % 1027,0 hPa 0,0 l/m 5,9 km/h (2 Bft) SO22.5 130 0 min 0 W/m
24.01.2017 09:50 -0,9 C 90 % 1027,0 hPa 0,0 l/m 9,2 km/h (2 Bft) SO22.5 145 0 min 0 W/m
24.01.2017 09:55 -0,9 C 90 % 1027,0 hPa 0,0 l/m 10,6 km/h (2 Bft) S22.5 175 0 min 0 W/m
24.01.2017 10:01 -0,9 C 90 % 1027,0 hPa 0,0 l/m 10,1 km/h (2 Bft) S-SO22.5 165 0 min 0 W/m
24.01.2017 10:05 -0,9 C 90 % 1027,0 hPa 0,0 l/m 11,1 km/h (2 Bft) S-SO22.5 165 0 min 0 W/m
24.01.2017 10:10 -0,8 C 90 % 1027,0 hPa 0,0 l/m 9,2 km/h (2 Bft) S22.5 170 0 min 0 W/m
24.01.2017 10:15 -0,8 C 90 % 1027,0 hPa 0,0 l/m 7,2 km/h (2 Bft) S 180 0 min 0 W/m
24.01.2017 10:20 -0,8 C 90 % 1027,0 hPa 0,0 l/m 6,8 km/h (2 Bft) S 185 0 min 0 W/m
24.01.2017 10:25 -0,8 C 90 % 1028,0 hPa 0,0 l/m 9,0 km/h (2 Bft) S-SO22.5 165 0 min 0 W/m
24.01.2017 10:31 -0,8 C 90 % 1028,0 hPa 0,0 l/m 10,7 km/h (2 Bft) S-SO 165 0 min 0 W/m
24.01.2017 10:36 -0,8 C 90 % 1028,0 hPa 0,0 l/m 5,6 km/h (2 Bft) S-SO 160 0 min 0 W/m
24.01.2017 10:41 -0,8 C 90 % 1028,0 hPa 0,0 l/m 5,6 km/h (2 Bft) S-SO22.5 155 0 min 0 W/m
24.01.2017 10:46 -0,7 C 90 % 1028,0 hPa 0,0 l/m 6,1 km/h (2 Bft) S 190 0 min 0 W/m
24.01.2017 10:51 -0,6 C 90 % 1028,0 hPa 0,0 l/m 6,7 km/h (2 Bft) S 190 0 min 0 W/m
24.01.2017 10:55 -0,6 C 90 % 1028,0 hPa 0,0 l/m 9,1 km/h (2 Bft) S 190 0 min 0 W/m
24.01.2017 11:00 -0,6 C 90 % 1028,0 hPa 0,0 l/m 11,6 km/h (2 Bft) S22.5 180 0 min 0 W/m
24.01.2017 11:06 -0,6 C 90 % 1028,0 hPa 0,0 l/m 8,1 km/h (2 Bft) S 175 0 min 0 W/m
24.01.2017 11:11 -0,5 C 90 % 1028,0 hPa 0,0 l/m 5,4 km/h (2 Bft) S 170 0 min 0 W/m
24.01.2017 11:16 -0,4 C 89 % 1028,0 hPa 0,0 l/m 6,8 km/h (2 Bft) S-SO 165 0 min 0 W/m
24.01.2017 11:21 -0,4 C 89 % 1028,0 hPa 0,0 l/m 5,4 km/h (2 Bft) S-SO 160 0 min 0 W/m
24.01.2017 11:26 -0,4 C 89 % 1028,0 hPa 0,0 l/m 6,3 km/h (2 Bft) S22.5 180 0 min 0 W/m
24.01.2017 11:30 -0,3 C 89 % 1028,0 hPa 0,0 l/m 5,8 km/h (2 Bft) S-SW 205 0 min 0 W/m
24.01.2017 11:35 -0,3 C 89 % 1028,0 hPa 0,0 l/m 6,5 km/h (2 Bft) S-SW22.5 200 0 min 0 W/m
24.01.2017 11:40 -0,3 C 89 % 1028,0 hPa 0,0 l/m 9,7 km/h (2 Bft) S22.5 190 0 min 0 W/m
24.01.2017 11:45 -0,2 C 89 % 1028,0 hPa 0,0 l/m 10,6 km/h (2 Bft) S-SW22.5 205 0 min 0 W/m
24.01.2017 11:50 -0,2 C 89 % 1028,0 hPa 0,0 l/m 9,6 km/h (2 Bft) S-SW22.5 200 0 min 0 W/m
24.01.2017 11:56 -0,2 C 89 % 1028,0 hPa 0,0 l/m 9,4 km/h (2 Bft) S-SW22.5 200 0 min 0 W/m
24.01.2017 12:01 -0,2 C 89 % 1028,0 hPa 0,0 l/m 9,9 km/h (2 Bft) S-SW22.5 205 0 min 0 W/m
24.01.2017 12:05 0,0 C 89 % 1028,0 hPa 0,0 l/m 7,6 km/h (2 Bft) S-SW 210 0 min 0 W/m
24.01.2017 12:10 0,1 C 89 % 1028,0 hPa 0,0 l/m 0,7 km/h (0 Bft) S-SW 210 0 min 0 W/m
24.01.2017 12:15 0,1 C 89 % 1028,0 hPa 0,0 l/m 0,0 km/h (0 Bft) S-SW 210 0 min 0 W/m
24.01.2017 12:21 0,1 C 89 % 1028,0 hPa 0,0 l/m 4,2 km/h (1 Bft) S-SW 210 0 min 0 W/m
24.01.2017 12:26 0,1 C 89 % 1028,0 hPa 0,0 l/m 6,1 km/h (2 Bft) S-SW 210 0 min 0 W/m
24.01.2017 12:31 0,1 C 89 % 1028,0 hPa 0,0 l/m 6,1 km/h (2 Bft) S-SW 210 0 min 0 W/m
24.01.2017 12:36 0,1 C 89 % 1028,0 hPa 0,0 l/m 0,4 km/h (0 Bft) S-SO 160 0 min 0 W/m
24.01.2017 12:41 0,2 C 89 % 1028,0 hPa 0,0 l/m 0,4 km/h (0 Bft) S-SO 155 0 min 0 W/m
24.01.2017 12:45 0,3 C 89 % 1028,0 hPa 0,0 l/m 8,6 km/h (2 Bft) SW22.5 235 0 min 0 W/m
24.01.2017 12:50 0,3 C 89 % 1028,0 hPa 0,0 l/m 6,8 km/h (2 Bft) W-SW22.5 240 0 min 0 W/m
24.01.2017 12:55 0,4 C 89 % 1028,0 hPa 0,0 l/m 0,0 km/h (0 Bft) W-SW 240 0 min 0 W/m
24.01.2017 13:00 0,5 C 89 % 1028,0 hPa 0,0 l/m 0,3 km/h (0 Bft) W-SW 240 0 min 0 W/m
24.01.2017 13:05 0,7 C 89 % 1028,0 hPa 0,0 l/m 0,5 km/h (0 Bft) W-SW 240 0 min 0 W/m
24.01.2017 13:10 0,7 C 89 % 1028,0 hPa 0,0 l/m 0,1 km/h (0 Bft) W-SW 240 0 min 0 W/m
24.01.2017 13:15 0,7 C 89 % 1028,0 hPa 0,0 l/m 0,0 km/h (0 Bft) W-SW 240 0 min 0 W/m
24.01.2017 13:21 0,7 C 88 % 1028,0 hPa 0,0 l/m 0,0 km/h (0 Bft) W-SW 240 0 min 0 W/m
24.01.2017 13:26 0,7 C 88 % 1028,0 hPa 0,0 l/m 0,0 km/h (0 Bft) W-SW 240 0 min 0 W/m
24.01.2017 13:31 0,7 C 88 % 1028,0 hPa 0,0 l/m 0,0 km/h (0 Bft) W-SW 240 0 min 0 W/m
24.01.2017 13:36 0,8 C 88 % 1028,0 hPa 0,0 l/m 0,0 km/h (0 Bft) W-SW 240 0 min 0 W/m
24.01.2017 13:40 0,7 C 88 % 1028,0 hPa 0,0 l/m 4,6 km/h (1 Bft) W-SW 240 0 min 0 W/m
24.01.2017 13:45 0,8 C 88 % 1028,0 hPa 0,0 l/m 4,5 km/h (1 Bft) S45 180 0 min 0 W/m
24.01.2017 13:50 0,9 C 88 % 1028,0 hPa 0,0 l/m 0,0 km/h (0 Bft) S-SO 155 0 min 0 W/m
24.01.2017 13:55 0,8 C 88 % 1028,0 hPa 0,0 l/m 0,0 km/h (0 Bft) S-SO 155 0 min 0 W/m
24.01.2017 14:00 0,8 C 88 % 1028,0 hPa 0,0 l/m 0,0 km/h (0 Bft) S-SO 155 0 min 0 W/m
24.01.2017 14:06 0,9 C 88 % 1028,0 hPa 0,0 l/m 0,0 km/h (0 Bft) S-SO 155 0 min 0 W/m
24.01.2017 14:11 0,9 C 88 % 1028,0 hPa 0,0 l/m 0,0 km/h (0 Bft) S-SO 155 0 min 0 W/m
24.01.2017 14:15 0,9 C 88 % 1028,0 hPa 0,0 l/m 0,0 km/h (0 Bft) S-SO 155 0 min 0 W/m
24.01.2017 14:20 0,9 C 88 % 1028,0 hPa 0,0 l/m 0,0 km/h (0 Bft) S-SO 155 0 min 0 W/m
24.01.2017 14:25 0,9 C 88 % 1028,0 hPa 0,0 l/m 0,0 km/h (0 Bft) S-SO 155 0 min 0 W/m
24.01.2017 14:31 0,9 C 88 % 1028,0 hPa 0,0 l/m 0,0 km/h (0 Bft) S-SO 155 0 min 0 W/m
24.01.2017 14:36 0,8 C 88 % 1028,0 hPa 0,0 l/m 0,0 km/h (0 Bft) S-SO 155 0 min 0 W/m
24.01.2017 14:40 0,9 C 88 % 1028,0 hPa 0,0 l/m 0,0 km/h (0 Bft) S-SO 155 0 min 0 W/m
24.01.2017 14:45 1,0 C 88 % 1028,0 hPa 0,0 l/m 0,0 km/h (0 Bft) S-SO 155 0 min 0 W/m
24.01.2017 14:50 1,0 C 88 % 1028,0 hPa 0,0 l/m 0,0 km/h (0 Bft) S-SO 155 0 min 0 W/m
24.01.2017 14:55 1,0 C 88 % 1028,0 hPa 0,0 l/m 3,1 km/h (1 Bft) S-SO 155 0 min 0 W/m
24.01.2017 15:00 1,1 C 88 % 1028,0 hPa 0,0 l/m 0,0 km/h (0 Bft) S-SO 155 0 min 0 W/m
24.01.2017 15:06 1,0 C 88 % 1028,0 hPa 0,0 l/m 0,0 km/h (0 Bft) S-SO 155 0 min 0 W/m
24.01.2017 15:10 1,1 C 88 % 1028,0 hPa 0,0 l/m 0,0 km/h (0 Bft) S-SO 155 0 min 0 W/m
24.01.2017 15:15 1,2 C 88 % 1028,0 hPa 0,0 l/m 0,0 km/h (0 Bft) S-SO 155 0 min 0 W/m
24.01.2017 15:20 1,2 C 88 % 1028,0 hPa 0,1 l/m 0,0 km/h (0 Bft) S-SO 155 0 min 0 W/m
24.01.2017 15:25 1,1 C 88 % 1028,0 hPa 0,0 l/m 0,0 km/h (0 Bft) S-SO 155 0 min 0 W/m
24.01.2017 15:30 1,1 C 88 % 1028,0 hPa 0,0 l/m 0,0 km/h (0 Bft) S-SO 155 0 min 0 W/m
24.01.2017 15:35 1,1 C 88 % 1028,0 hPa 0,0 l/m 0,0 km/h (0 Bft) S-SO 155 0 min 0 W/m
24.01.2017 15:41 1,1 C 88 % 1028,0 hPa 0,0 l/m 0,0 km/h (0 Bft) S-SO 155 0 min 0 W/m
24.01.2017 15:46 1,1 C 88 % 1028,0 hPa 0,0 l/m 0,0 km/h (0 Bft) S-SO 155 0 min 0 W/m
24.01.2017 15:51 1,1 C 88 % 1028,0 hPa 0,0 l/m 0,0 km/h (0 Bft) S-SO 155 0 min 0 W/m
24.01.2017 15:56 1,1 C 88 % 1028,0 hPa 0,0 l/m 0,0 km/h (0 Bft) S-SO 155 0 min 0 W/m
24.01.2017 16:00 1,1 C 88 % 1028,0 hPa 0,0 l/m 0,0 km/h (0 Bft) S-SO 155 0 min 0 W/m
24.01.2017 16:05 1,1 C 88 % 1028,0 hPa 0,0 l/m 0,0 km/h (0 Bft) S-SO 155 0 min 0 W/m
24.01.2017 16:11 1,1 C 88 % 1028,0 hPa 0,0 l/m 0,0 km/h (0 Bft) S-SO 155 0 min 0 W/m
24.01.2017 16:16 1,1 C 88 % 1028,0 hPa 0,0 l/m 0,0 km/h (0 Bft) S-SO 155 0 min 0 W/m
24.01.2017 16:21 1,0 C 88 % 1028,0 hPa 0,0 l/m 0,0 km/h (0 Bft) S-SO 155 0 min 0 W/m
24.01.2017 16:26 0,9 C 88 % 1028,0 hPa 0,0 l/m 0,0 km/h (0 Bft) S-SO 155 0 min 0 W/m
24.01.2017 16:31 1,0 C 88 % 1028,0 hPa 0,0 l/m 0,0 km/h (0 Bft) S-SO 155 0 min 0 W/m
24.01.2017 16:35 0,9 C 88 % 1028,0 hPa 0,0 l/m 0,0 km/h (0 Bft) S-SO 155 0 min 0 W/m
24.01.2017 16:40 0,9 C 88 % 1028,0 hPa 0,1 l/m 0,0 km/h (0 Bft) S-SO 155 0 min 0 W/m
24.01.2017 16:45 0,9 C 88 % 1028,0 hPa 0,0 l/m 0,0 km/h (0 Bft) S-SO 155 0 min 0 W/m
24.01.2017 16:50 0,9 C 88 % 1028,0 hPa 0,0 l/m 0,0 km/h (0 Bft) S-SO 155 0 min 0 W/m
24.01.2017 16:55 0,9 C 88 % 1028,0 hPa 0,0 l/m 0,0 km/h (0 Bft) S-SO 155 0 min 0 W/m
24.01.2017 17:01 0,8 C 88 % 1028,0 hPa 0,0 l/m 0,0 km/h (0 Bft) S-SO 155 0 min 0 W/m
24.01.2017 17:05 0,8 C 88 % 1028,0 hPa 0,0 l/m 0,0 km/h (0 Bft) S-SO 155 0 min 0 W/m
24.01.2017 17:10 0,7 C 88 % 1028,0 hPa 0,0 l/m 0,0 km/h (0 Bft) S-SO 155 0 min 0 W/m
24.01.2017 17:15 0,7 C 88 % 1028,0 hPa 0,0 l/m 0,0 km/h (0 Bft) S-SO 155 0 min 0 W/m
24.01.2017 17:20 0,7 C 88 % 1028,0 hPa 0,0 l/m 0,0 km/h (0 Bft) S-SO 155 0 min 0 W/m
24.01.2017 17:25 0,7 C 88 % 1028,0 hPa 0,0 l/m 0,0 km/h (0 Bft) S-SO 155 0 min 0 W/m
24.01.2017 17:30 0,7 C 88 % 1028,0 hPa 0,0 l/m 0,0 km/h (0 Bft) S-SO 155 0 min 0 W/m
24.01.2017 17:36 0,7 C 88 % 1028,0 hPa 0,0 l/m 0,0 km/h (0 Bft) S-SO 155 0 min 0 W/m
24.01.2017 17:41 0,7 C 88 % 1028,0 hPa 0,0 l/m 0,0 km/h (0 Bft) S-SO 155 0 min 0 W/m
24.01.2017 17:46 0,7 C 88 % 1028,0 hPa 0,0 l/m 0,0 km/h (0 Bft) S-SO 155 0 min 0 W/m
24.01.2017 17:51 0,7 C 88 % 1028,0 hPa 0,0 l/m 0,0 km/h (0 Bft) S-SO 155 0 min 0 W/m
24.01.2017 17:56 0,6 C 87 % 1029,0 hPa 0,0 l/m 0,0 km/h (0 Bft) S-SO 155 0 min 0 W/m
24.01.2017 18:01 0,5 C 87 % 1029,0 hPa 0,0 l/m 0,0 km/h (0 Bft) S-SO 155 0 min 0 W/m
24.01.2017 18:05 0,6 C 87 % 1029,0 hPa 0,0 l/m 0,0 km/h (0 Bft) S-SO 155 0 min 0 W/m
24.01.2017 18:10 0,6 C 87 % 1029,0 hPa 0,0 l/m 0,0 km/h (0 Bft) S-SO 155 0 min 0 W/m
24.01.2017 18:15 0,5 C 87 % 1029,0 hPa 0,0 l/m 0,0 km/h (0 Bft) S-SO 155 0 min 0 W/m
24.01.2017 18:20 0,5 C 87 % 1029,0 hPa 0,0 l/m 0,0 km/h (0 Bft) S-SO 155 0 min 0 W/m
24.01.2017 18:26 0,5 C 87 % 1029,0 hPa 0,0 l/m 0,0 km/h (0 Bft) S-SO 155 0 min 0 W/m
24.01.2017 18:31 0,5 C 87 % 1029,0 hPa 0,0 l/m 0,0 km/h (0 Bft) S-SO 155 0 min 0 W/m
24.01.2017 18:36 0,6 C 87 % 1029,0 hPa 0,0 l/m 0,0 km/h (0 Bft) S-SO 155 0 min 0 W/m
24.01.2017 18:41 0,7 C 88 % 1029,0 hPa 0,0 l/m 0,0 km/h (0 Bft) S-SO 155 0 min 0 W/m
24.01.2017 18:46 0,6 C 87 % 1029,0 hPa 0,0 l/m 0,0 km/h (0 Bft) S-SO 155 0 min 0 W/m
24.01.2017 18:50 0,6 C 87 % 1029,0 hPa 0,0 l/m 0,0 km/h (0 Bft) S-SO 155 0 min 0 W/m
24.01.2017 18:55 0,6 C 87 % 1029,0 hPa 0,0 l/m 0,0 km/h (0 Bft) S-SO 155 0 min 0 W/m
24.01.2017 19:00 0,6 C 87 % 1029,0 hPa 0,0 l/m 0,0 km/h (0 Bft) S-SO 155 0 min 0 W/m
24.01.2017 19:06 0,7 C 88 % 1029,0 hPa 0,0 l/m 0,6 km/h (0 Bft) S-SO 155 0 min 0 W/m
24.01.2017 19:11 0,7 C 88 % 1029,0 hPa 0,0 l/m 0,0 km/h (0 Bft) S-SO 155 0 min 0 W/m
24.01.2017 19:16 0,7 C 88 % 1029,0 hPa 0,0 l/m 0,4 km/h (0 Bft) S-SO 155 0 min 0 W/m
24.01.2017 19:20 0,7 C 88 % 1029,0 hPa 0,0 l/m 0,0 km/h (0 Bft) S-SO 155 0 min 0 W/m
24.01.2017 19:25 0,7 C 87 % 1029,0 hPa 0,0 l/m 3,7 km/h (1 Bft) S-SO 155 0 min 0 W/m
24.01.2017 19:30 0,7 C 87 % 1029,0 hPa 0,0 l/m 0,0 km/h (0 Bft) S-SO 155 0 min 0 W/m
24.01.2017 19:35 0,7 C 87 % 1029,0 hPa 0,0 l/m 0,0 km/h (0 Bft) S-SO 155 0 min 0 W/m
24.01.2017 19:41 0,5 C 87 % 1029,0 hPa 0,0 l/m 0,0 km/h (0 Bft) S-SO 155 0 min 0 W/m
24.01.2017 19:46 0,5 C 87 % 1029,0 hPa 0,0 l/m 0,0 km/h (0 Bft) S-SO 155 0 min 0 W/m
24.01.2017 19:51 0,5 C 87 % 1029,0 hPa 0,0 l/m 0,9 km/h (0 Bft) S-SO 155 0 min 0 W/m
24.01.2017 19:56 0,5 C 87 % 1029,0 hPa 0,0 l/m 4,3 km/h (1 Bft) S-SO 155 0 min 0 W/m
24.01.2017 20:01 0,6 C 87 % 1029,0 hPa 0,0 l/m 4,5 km/h (1 Bft) S-SO 155 0 min 0 W/m
24.01.2017 20:05 0,5 C 87 % 1029,0 hPa 0,0 l/m 0,1 km/h (0 Bft) S-SO 155 0 min 0 W/m
24.01.2017 20:11 0,5 C 87 % 1029,0 hPa 0,0 l/m 0,0 km/h (0 Bft) S-SO 155 0 min 0 W/m
24.01.2017 20:16 0,5 C 87 % 1029,0 hPa 0,0 l/m 1,1 km/h (1 Bft) S-SO 155 0 min 0 W/m
24.01.2017 20:21 0,5 C 87 % 1029,0 hPa 0,0 l/m 0,0 km/h (0 Bft) S-SO 155 0 min 0 W/m
24.01.2017 20:26 0,5 C 87 % 1029,0 hPa 0,0 l/m 0,6 km/h (0 Bft) S-SO 155 0 min 0 W/m
24.01.2017 20:31 0,6 C 87 % 1029,0 hPa 0,0 l/m 0,0 km/h (0 Bft) O 90 0 min 0 W/m
24.01.2017 20:35 0,6 C 87 % 1029,0 hPa 0,0 l/m 0,0 km/h (0 Bft) O 90 0 min 0 W/m
24.01.2017 20:40 0,6 C 87 % 1029,0 hPa 0,0 l/m 0,0 km/h (0 Bft) O 90 0 min 0 W/m
24.01.2017 20:45 0,5 C 87 % 1029,0 hPa 0,0 l/m 0,0 km/h (0 Bft) O 90 0 min 0 W/m
24.01.2017 20:50 0,6 C 87 % 1029,0 hPa 0,0 l/m 4,5 km/h (1 Bft) O22.5 80 0 min 0 W/m
24.01.2017 20:56 0,6 C 87 % 1029,0 hPa 0,0 l/m 0,9 km/h (0 Bft) O-NO 60 0 min 0 W/m
24.01.2017 21:01 0,6 C 87 % 1029,0 hPa 0,0 l/m 5,4 km/h (2 Bft) NO22.5 35 0 min 0 W/m
24.01.2017 21:05 0,6 C 87 % 1029,0 hPa 0,0 l/m 0,0 km/h (0 Bft) N-NO 15 0 min 0 W/m
24.01.2017 21:10 0,6 C 87 % 1029,0 hPa 0,0 l/m 0,3 km/h (0 Bft) N-NO 15 0 min 0 W/m
24.01.2017 21:15 0,6 C 87 % 1029,0 hPa 0,0 l/m 0,3 km/h (0 Bft) N-NO 15 0 min 0 W/m
24.01.2017 21:16 0,6 C 87 % 1029,0 hPa 0,0 l/m 0,3 km/h (0 Bft) N-NO 15 0 min 0 W/m
24.01.2017 21:20 0,6 C 87 % 1029,0 hPa 0,0 l/m 0,0 km/h (0 Bft) N-NO 15 0 min 0 W/m
24.01.2017 21:25 0,5 C 87 % 1029,0 hPa 0,0 l/m 5,6 km/h (2 Bft) N-NO 15 0 min 0 W/m
24.01.2017 21:30 0,6 C 87 % 1029,0 hPa 0,0 l/m 5,8 km/h (2 Bft) N-NO 15 0 min 0 W/m
24.01.2017 21:35 0,6 C 87 % 1029,0 hPa 0,0 l/m 0,0 km/h (0 Bft) N-NO 15 0 min 0 W/m
24.01.2017 21:41 0,6 C 87 % 1029,0 hPa 0,0 l/m 0,0 km/h (0 Bft) N-NO 15 0 min 0 W/m
24.01.2017 21:46 0,6 C 87 % 1030,0 hPa 0,0 l/m 0,1 km/h (0 Bft) N-NO 15 0 min 0 W/m
24.01.2017 21:51 0,6 C 87 % 1030,0 hPa 0,0 l/m 0,5 km/h (0 Bft) N-NO 15 0 min 0 W/m
24.01.2017 21:56 0,6 C 87 % 1030,0 hPa 0,0 l/m 4,3 km/h (1 Bft) N-NO 15 0 min 0 W/m
24.01.2017 22:01 0,5 C 87 % 1029,0 hPa 0,0 l/m 0,0 km/h (0 Bft) N-NO 15 0 min 0 W/m
24.01.2017 22:05 0,5 C 87 % 1029,0 hPa 0,0 l/m 0,0 km/h (0 Bft) N-NO 15 0 min 0 W/m
24.01.2017 22:11 0,5 C 87 % 1029,0 hPa 0,0 l/m 0,0 km/h (0 Bft) N-NO 15 0 min 0 W/m
24.01.2017 22:16 0,5 C 87 % 1029,0 hPa 0,0 l/m 0,0 km/h (0 Bft) N-NO 15 0 min 0 W/m
24.01.2017 22:21 0,4 C 87 % 1029,0 hPa 0,0 l/m 0,0 km/h (0 Bft) N-NO 15 0 min 0 W/m
24.01.2017 22:26 0,4 C 87 % 1029,0 hPa 0,0 l/m 0,0 km/h (0 Bft) N-NO 15 0 min 0 W/m
24.01.2017 22:31 0,4 C 87 % 1030,0 hPa 0,0 l/m 0,0 km/h (0 Bft) N-NO 15 0 min 0 W/m
24.01.2017 22:35 0,4 C 87 % 1030,0 hPa 0,0 l/m 0,0 km/h (0 Bft) N-NO 15 0 min 0 W/m
24.01.2017 22:40 0,4 C 87 % 1030,0 hPa 0,0 l/m 1,2 km/h (1 Bft) NO45 50 0 min 0 W/m
24.01.2017 22:45 0,4 C 87 % 1029,0 hPa 0,0 l/m 0,7 km/h (0 Bft) SO22.5 130 0 min 0 W/m
24.01.2017 22:50 0,5 C 87 % 1030,0 hPa 0,0 l/m 2,1 km/h (1 Bft) O45 100 0 min 0 W/m
24.01.2017 22:55 0,5 C 87 % 1030,0 hPa 0,0 l/m 3,6 km/h (1 Bft) O-SO22.5 115 0 min 0 W/m
24.01.2017 23:01 0,5 C 87 % 1029,0 hPa 0,0 l/m 0,8 km/h (0 Bft) O-SO45 105 0 min 0 W/m
24.01.2017 23:05 0,5 C 87 % 1029,0 hPa 0,0 l/m 8,4 km/h (2 Bft) SO45 125 0 min 0 W/m
24.01.2017 23:10 0,5 C 87 % 1029,0 hPa 0,0 l/m 1,1 km/h (1 Bft) SO22.5 140 0 min 0 W/m
24.01.2017 23:15 0,4 C 87 % 1029,0 hPa 0,0 l/m 0,9 km/h (0 Bft) S-SO45 150 0 min 0 W/m
24.01.2017 23:20 0,3 C 87 % 1029,0 hPa 0,0 l/m 1,3 km/h (1 Bft) SO22.5 130 0 min 0 W/m
24.01.2017 23:25 0,3 C 87 % 1029,0 hPa 0,0 l/m 8,3 km/h (2 Bft) O-SO67.5 120 0 min 0 W/m
24.01.2017 23:31 0,3 C 86 % 1029,0 hPa 0,0 l/m 8,7 km/h (2 Bft) SO45 125 0 min 0 W/m
24.01.2017 23:36 0,3 C 86 % 1029,0 hPa 0,0 l/m 11,0 km/h (2 Bft) SO45 140 0 min 0 W/m
24.01.2017 23:41 0,2 C 86 % 1029,0 hPa 0,0 l/m 0,8 km/h (0 Bft) S-SO45 165 0 min 0 W/m
24.01.2017 23:46 0,2 C 85 % 1030,0 hPa 0,0 l/m 1,0 km/h (0 Bft) O-SO22.5 110 0 min 0 W/m
24.01.2017 23:51 0,2 C 85 % 1030,0 hPa 0,0 l/m 13,2 km/h (3 Bft) O-SO45 115 0 min 0 W/m
24.01.2017 23:55 0,4 C 83 % 1030,0 hPa 0,0 l/m 12,6 km/h (3 Bft) O-SO45 115 0 min 0 W/m
_ Min-Zeit 02:50 23:55 00:25 - 12:15 - - - -
Minimum _ -1,3 C 83 % 1025,0 hPa - 0,0 km/h (0 Bft) - - - -
_ Max-Zeit 15:15 07:01 23:46 15:20 09:11 - - 00:01 00:01
Maximum _ 1,2 C 90 % 1030,0 hPa 0,1 l/m 15,1 km/h
S-SO (3 Bft)
- - 0 min 0 W/m
Durchschnitt _ -0,2 C 88 % 1027,2 hPa #0,2 l/m 5,6 km/h (2 Bft) S-SO - #0 min. 0 W/m